Weather in Trosna

Russia / Bryansk Oblast     53°28′41″N   33°47′15″E
temp.,
°C
wind,
m/s
gust,
m/s
humid.,
%
clouds,
%
prec.,
mm/h
press.,
hPa
HPBL,
m
17 april, sat
sat1700:00+7se24865 0.0 1017106
03:00+5ese23935 0.0 101861
06:00+4ese239389 0.0 101854
09:00+9se237097 0.0 1019474
12:00+13nne1153100 0.0 10181187
15:00+10ssw1171100 0.8 1017309
18:00+8wnw3694100 3.2 1016359
21:00+8ese2497100 4.2 1015345
18 april, sun
sun1800:00+5sse4891100 0.4 1017719
03:00+5sse2690100 0.6 1017382
06:00+5ene2594100 0.0 1018263
09:00+7e3583100 0.0 1018608
12:00+10ese446398 0.3 10181415
15:00+11e345398 0.4 10181495
18:00+10ese356579 0.4 1018766
21:00+7ene2483100 1.2 1020138
19 april, mon
mon1900:00+6ene3694100 0.3 1020248
03:00+5ene3793100 0.4 1020299
06:00+5ene4895100 0.1 1019874
09:00+6ene51091100 1.4 1019963
12:00+7e488797 0.1 1019777
15:00+7ene4889100 0.4 1019402
18:00+8ne4884100 0.9 1019718
21:00+7ene51191100 2.3 1018598
20 april, tue
tue2000:00+6ene51091100 0.2 1017631
03:00+6ene51093100 0.2 1016749
06:00+5ene51094100 0.0 1015659
09:00+5ne51194100 0.6 1013813
12:00+5ne51294100 0.1 1011745
15:00+5ne61294100 0.4 1006712
18:00+5ne61494100 3.9 1001862
21:00+5nne61494100 14.3 9961050
21 april, wed
wed2100:00+8e41197100 2.0 993591
03:00+8e41093100 2.7 992506
06:00+7nne2397100 0.8 992106
09:00+3w61295100 1.4 997521
12:00+3wsw61396100 0.3 1002732
15:00+4sw61296100 0.5 1007952
18:00+6wsw5118897 0.2 10101027
21:00+6ssw41086100 0.3 1013428